Wind_Speed
29 37 30 28 25 23 20 20 21 21 21 21 20 19 18 16 15 14 13 13 13 13 13 13 11 12 13 13 13 14 14 13 13
18 42 33 31 30 27 24 21 22 23 22 21 20 19 20 18 17 16 14 12 11 10 10 10 11 14 13 12 12 13 12 12 12
20 44 35 32 33 31 29 26 25 23 22 23 22 20 20 20 17 16 16 15 13 13 12 13 13 11 12 12 12 12 12 12 12
16 40 41 36 32 36 34 32 27 26 24 22 21 21 20 18 17 17 19 17 17 16 15 14 13 14 13 13 12 12 13 13 13
9 41 46 41 39 41 41 36 32 30 28 26 24 23 22 21 21 20 19 15 18 19 17 16 15 15 15 14 14 15 14 15 15
7 8 43 50 44 45 42 40 37 35 33 31 29 28 26 24 23 21 21 19 19 19 19 19 19 18 17 16 16 17 18 18 18
11 9 6 37 39 41 42 40 40 39 39 37 34 31 30 28 27 26 25 22 20 19 19 19 19 19 20 18 20 20 21 21 21
9 16 14 16 43 47 44 42 42 42 43 42 39 35 33 33 33 31 29 27 26 25 24 24 24 22 22 22 22 22 22 23 22
14 10 16 16 22 50 50 48 44 44 44 43 41 40 38 37 34 33 31 29 28 27 27 26 27 27 27 24 24 24 24 23 24
21 19 17 20 19 31 53 60 55 52 44 44 43 41 39 37 36 36 34 32 30 29 29 30 31 31 30 29 28 27 28 27 27
26 21 18 21 22 23 20 33 54 53 54 44 42 40 42 39 40 41 39 36 34 30 31 35 34 33 35 35 33 34 33 33 33
27 29 22 19 25 25 15 7 19 60 56 50 47 40 46 42 43 40 43 40 38 39 39 38 39 37 35 36 37 38 38 38 35
26 26 24 24 22 19 26 24 9 28 48 47 53 46 50 46 44 35 34 44 43 41 47 46 43 48 38 42 39 41 38 38 39
28 27 26 26 24 21 18 15 19 16 14 25 59 55 42 50 44 51 44 45 49 48 48 52 41 40 44 47 44 39 38 40 41
35 31 28 24 22 21 20 20 18 18 15 15 17 26 28 25 36 47 46 54 54 51 51 44 42 49 46 44 45 43 40 38 39
30 34 33 30 27 24 22 21 24 21 19 17 17 20 23 22 25 26 28 28 31 28 40 31 32 46 45 43 42 45 48 51 47
21 27 34 34 32 33 33 29 28 26 21 22 22 21 22 24 25 27 27 33 37 33 22 30 30 34 42 44 42 45 44 37 35
17 19 23 31 33 33 28 24 26 30 30 27 28 28 28 30 28 28 30 32 35 43 43 33 23 22 24 27 25 18 18 21 12
17 16 19 23 26 28 30 28 24 25 31 30 30 30 27 28 29 28 28 29 28 27 25 21 22 16 19 25 27 20 22 22 23
22 18 18 18 21 25 26 28 29 28 29 31 32 34 31 30 30 29 30 30 30 28 29 33 30 24 25 21 20 17 28 26 27
Wind_Direction
229 211 213 200 198 205 209 205 196 192 188 183 190 188 190 190 192 194 192 189 180 181 181 185 183 183 185 186 184 190 195 199 202
226 214 207 201 196 200 210 211 206 201 195 188 192 190 190 193 196 201 198 201 200 195 196 194 194 190 195 198 198 202 210 214 218
231 211 214 201 198 198 206 207 214 208 206 198 195 198 200 197 196 193 198 200 197 203 209 203 207 207 209 206 209 209 210 214 219
212 203 206 206 203 200 205 206 212 215 211 211 202 204 211 213 208 203 202 202 202 204 213 216 218 217 215 215 217 219 222 221 221
218 203 204 207 206 203 200 204 207 216 216 213 212 214 212 213 214 215 215 216 211 207 211 217 220 224 227 230 231 231 231 234 236
242 238 208 214 209 205 207 202 205 212 217 218 215 214 217 216 216 217 220 221 219 217 215 214 221 224 229 235 236 239 238 239 239
187 191 194 206 207 208 211 213 209 210 214 221 221 217 219 219 219 220 221 219 223 229 231 227 225 226 229 233 238 242 243 243 247
206 210 227 215 217 212 219 221 218 215 219 219 221 222 220 223 222 221 224 224 225 226 227 230 234 236 236 237 234 238 245 249 249
256 245 247 252 223 221 213 217 220 223 224 225 227 224 224 226 229 228 228 230 230 232 235 236 236 243 247 246 244 242 243 247 252
250 245 262 268 255 213 220 223 221 222 223 227 230 233 229 233 238 240 243 240 238 240 240 244 247 247 248 250 251 250 250 249 250
249 252 262 259 280 256 264 215 219 220 216 222 226 232 230 236 235 243 245 245 245 244 254 253 246 252 251 250 251 254 254 257 255
244 248 249 258 266 278 285 259 219 219 217 225 223 229 233 237 231 237 246 246 245 249 248 251 251 256 253 255 255 252 257 260 257
251 248 245 246 258 281 288 296 253 208 224 226 230 229 235 240 237 234 239 247 244 253 254 260 256 260 256 258 261 257 253 254 258
258 256 254 251 256 260 263 271 288 263 278 221 224 229 241 230 239 237 246 250 251 253 260 263 264 258 255 259 255 257 258 254 259
247 255 252 256 256 257 264 260 260 260 252 249 260 240 238 263 246 247 246 246 248 258 262 264 275 266 264 271 252 249 257 260 266
247 248 254 257 256 250 261 268 269 261 260 253 241 242 250 252 255 269 254 237 234 238 256 237 242 266 260 251 246 251 249 257 260
251 244 248 253 256 265 269 263 260 261 259 256 253 253 256 256 257 268 277 277 265 270 253 260 265 266 256 241 262 255 249 257 258
251 247 244 245 248 251 256 252 249 253 257 251 251 254 260 265 266 267 270 272 274 279 281 285 271 261 248 229 225 245 252 308 279
260 260 250 241 239 236 240 245 245 245 246 249 251 250 258 258 260 260 261 266 278 274 267 229 225 271 256 241 275 270 270 288 262
258 259 261 259 254 249 245 243 239 241 246 247 248 250 251 252 256 261 263 266 269 272 277 274 285 237 251 264 269 260 260 266 262
Height
5878 5883 5888 5893 5897 5901 5905 5908 5910 5913 5915 5916 5919 5922 5925 5927 5928 5930 5933 5935 5938 5939 5940 5940 5942 5944 5945 5947 5950 5951 5951 5952 5953
5873 5878 5882 5889 5893 5897 5901 5906 5908 5910 5912 5914 5917 5920 5923 5926 5928 5929 5931 5933 5935 5937 5939 5941 5942 5944 5946 5947 5949 5950 5951 5951 5952
5867 5871 5877 5884 5888 5892 5897 5901 5904 5907 5910 5912 5914 5918 5921 5924 5927 5929 5930 5932 5933 5935 5937 5940 5942 5943 5945 5946 5947 5948 5949 5949 5950
5861 5866 5873 5878 5882 5886 5891 5895 5901 5904 5906 5909 5912 5915 5918 5921 5924 5926 5928 5930 5932 5933 5935 5937 5940 5941 5943 5944 5945 5946 5947 5947 5948
5859 5861 5866 5870 5875 5879 5883 5889 5894 5899 5903 5905 5907 5910 5914 5918 5921 5923 5925 5927 5930 5932 5932 5935 5936 5938 5940 5941 5942 5943 5944 5945 5946
5856 5854 5858 5864 5867 5874 5878 5881 5887 5892 5896 5899 5903 5906 5909 5913 5917 5919 5921 5924 5926 5928 5930 5932 5933 5935 5936 5937 5939 5940 5940 5941 5942
5854 5855 5855 5859 5862 5868 5872 5876 5879 5884 5889 5893 5897 5901 5904 5908 5911 5913 5916 5919 5922 5924 5926 5928 5929 5931 5932 5934 5935 5936 5937 5938 5939
5850 5853 5856 5856 5857 5862 5866 5869 5873 5877 5882 5885 5890 5894 5898 5901 5904 5906 5910 5913 5916 5918 5920 5922 5924 5926 5927 5929 5930 5932 5933 5935 5935
5847 5848 5848 5847 5848 5852 5857 5861 5866 5871 5876 5880 5884 5888 5892 5894 5899 5902 5905 5908 5911 5913 5915 5917 5919 5921 5922 5924 5925 5926 5927 5928 5929
5842 5844 5843 5840 5840 5841 5846 5852 5858 5862 5866 5871 5877 5883 5886 5891 5895 5899 5900 5902 5904 5906 5908 5910 5913 5915 5916 5917 5918 5920 5921 5921 5922
5838 5838 5838 5837 5836 5836 5837 5839 5846 5852 5858 5863 5868 5874 5879 5883 5887 5889 5893 5896 5898 5900 5899 5903 5904 5906 5908 5909 5910 5912 5913 5915 5916
5833 5833 5835 5834 5832 5830 5832 5833 5835 5842 5848 5855 5860 5865 5869 5873 5877 5882 5883 5887 5888 5891 5891 5892 5893 5896 5898 5900 5901 5901 5903 5905 5907
5826 5827 5829 5830 5830 5828 5828 5830 5831 5834 5842 5844 5849 5857 5861 5864 5866 5869 5872 5875 5878 5880 5881 5879 5881 5884 5886 5888 5890 5892 5892 5895 5896
5818 5821 5822 5825 5826 5827 5828 5828 5830 5830 5832 5833 5841 5846 5852 5857 5859 5860 5862 5865 5866 5868 5870 5870 5869 5871 5875 5877 5879 5882 5882 5883 5885
5812 5814 5816 5818 5820 5822 5824 5825 5826 5826 5829 5831 5836 5840 5845 5846 5850 5852 5854 5854 5859 5860 5859 5860 5859 5860 5862 5863 5865 5869 5872 5872 5873
5802 5806 5808 5810 5814 5816 5818 5820 5822 5825 5827 5831 5834 5836 5838 5840 5842 5843 5844 5845 5846 5846 5848 5849 5847 5847 5849 5851 5854 5856 5858 5859 5862
5794 5796 5800 5803 5806 5808 5810 5814 5817 5819 5822 5824 5827 5829 5831 5833 5835 5835 5834 5833 5836 5838 5839 5838 5839 5837 5838 5840 5842 5843 5847 5847 5847
5787 5790 5792 5795 5798 5801 5802 5804 5808 5811 5814 5816 5818 5821 5822 5824 5825 5826 5827 5827 5828 5826 5827 5830 5831 5830 5829 5830 5831 5833 5834 5836 5839
5782 5783 5785 5788 5790 5793 5795 5797 5800 5802 5804 5807 5810 5812 5813 5814 5816 5818 5819 5819 5819 5820 5821 5820 5823 5824 5825 5825 5824 5828 5827 5828 5829
5777 5779 5780 5781 5782 5784 5786 5789 5792 5795 5796 5797 5800 5802 5805 5806 5808 5808 5810 5811 5811 5813 5812 5812 5813 5817 5818 5817 5821 5821 5821 5821 5822